Time,TemperatureF,DewpointF,PressureIn,WindDirection,WindDirectionDegrees,WindSpeedMPH,WindSpeedGustMPH,Humidity,HourlyPrecipIn,Conditions,Clouds,dailyrainin,SoftwareType,DateUTC
2013-06-23 00:00:00,72.3,62.4,30.09,East,90,0.0,0.0,71,0.00,,,0.00,WUHU216HW,2013-06-22 22:00:00,
2013-06-23 00:05:00,72.3,62.4,30.09,ESE,113,0.0,1.5,71,0.00,,,0.00,WUHU216HW,2013-06-22 22:05:00,
2013-06-23 00:10:00,72.3,62.6,30.09,ENE,68,0.0,1.5,71,0.00,,,0.00,WUHU216HW,2013-06-22 22:10:00,
2013-06-23 00:15:00,72.3,62.8,30.09,NNE,23,0.0,0.0,72,0.00,,,0.00,WUHU216HW,2013-06-22 22:15:00,
2013-06-23 00:20:00,72.3,62.8,30.09,NE,45,0.0,0.0,72,0.00,,,0.00,WUHU216HW,2013-06-22 22:20:00,
2013-06-23 00:25:00,71.9,62.8,30.09,SE,135,0.0,0.0,73,0.00,,,0.00,WUHU216HW,2013-06-22 22:25:00,
2013-06-23 00:30:00,71.7,62.6,30.09,ENE,68,1.1,1.1,73,0.00,,,0.00,WUHU216HW,2013-06-22 22:30:00,
2013-06-23 00:35:00,71.7,62.6,30.09,ENE,68,0.0,1.1,73,0.00,,,0.00,WUHU216HW,2013-06-22 22:35:00,
2013-06-23 00:40:00,71.6,62.4,30.08,ENE,68,1.7,1.7,73,0.00,,,0.00,WUHU216HW,2013-06-22 22:40:00,
2013-06-23 00:45:00,71.6,62.4,30.08,NE,45,0.8,1.7,73,0.00,,,0.00,WUHU216HW,2013-06-22 22:45:00,
2013-06-23 00:50:00,71.4,62.2,30.08,East,90,1.1,1.7,73,0.00,,,0.00,WUHU216HW,2013-06-22 22:50:00,
2013-06-23 00:55:00,71.6,62.8,30.09,ENE,68,1.1,1.3,74,0.00,,,0.00,WUHU216HW,2013-06-22 22:55:00,
2013-06-23 01:01:00,71.4,62.6,30.08,ENE,68,0.8,1.3,74,0.00,,,0.00,WUHU216HW,2013-06-22 23:01:00,
2013-06-23 01:06:00,71.4,62.6,30.08,NE,45,0.0,1.3,74,0.00,,,0.00,WUHU216HW,2013-06-22 23:06:00,
2013-06-23 01:11:00,71.2,62.4,30.08,East,90,0.0,1.1,74,0.00,,,0.00,WUHU216HW,2013-06-22 23:11:00,
2013-06-23 01:16:00,71.2,62.4,30.08,NE,45,0.0,0.0,74,0.00,,,0.00,WUHU216HW,2013-06-22 23:16:00,
2013-06-23 01:21:00,71.2,62.8,30.07,NE,45,0.0,0.0,75,0.00,,,0.00,WUHU216HW,2013-06-22 23:21:00,
2013-06-23 01:26:00,70.8,62.5,30.07,ENE,68,0.8,0.8,75,0.00,,,0.00,WUHU216HW,2013-06-22 23:26:00,
2013-06-23 01:31:00,70.8,62.5,30.06,ENE,68,2.4,2.4,75,0.00,,,0.00,WUHU216HW,2013-06-22 23:31:00,
2013-06-23 01:36:00,70.8,62.5,30.06,North,0,0.6,2.4,75,0.00,,,0.00,WUHU216HW,2013-06-22 23:36:00,
2013-06-23 01:41:00,69.9,61.9,30.06,North,0,0.0,1.5,76,0.00,,,0.00,WUHU216HW,2013-06-22 23:41:00,
2013-06-23 01:46:00,69.4,61.4,30.07,NW,315,0.0,1.5,76,0.00,,,0.00,WUHU216HW,2013-06-22 23:46:00,
2013-06-23 01:51:00,69.0,61.1,30.06,East,90,0.0,0.0,76,0.00,,,0.00,WUHU216HW,2013-06-22 23:51:00,
2013-06-23 01:56:00,69.0,61.5,30.06,ENE,68,0.0,0.0,77,0.00,,,0.00,WUHU216HW,2013-06-22 23:56:00,
2013-06-23 02:01:00,69.4,61.8,30.06,ESE,113,0.0,0.0,77,0.00,,,0.00,WUHU216HW,2013-06-23 00:01:00,
2013-06-23 02:06:00,69.4,61.4,30.06,South,180,0.0,0.0,76,0.00,,,0.00,WUHU216HW,2013-06-23 00:06:00,
2013-06-23 02:11:00,69.2,61.3,30.06,WSW,248,0.0,0.0,76,0.00,,,0.00,WUHU216HW,2013-06-23 00:11:00,
2013-06-23 02:16:00,69.0,61.1,30.06,NW,315,0.0,0.0,76,0.00,,,0.00,WUHU216HW,2013-06-23 00:16:00,
2013-06-23 02:21:00,68.9,61.3,30.06,NNW,338,0.0,0.0,77,0.00,,,0.00,WUHU216HW,2013-06-23 00:21:00,
2013-06-23 02:26:00,68.7,61.2,30.05,NNW,338,0.6,0.6,77,0.00,,,0.00,WUHU216HW,2013-06-23 00:26:00,
2013-06-23 02:31:00,68.1,60.3,30.05,North,0,0.0,0.8,76,0.00,,,0.00,WUHU216HW,2013-06-23 00:31:00,
2013-06-23 02:36:00,67.6,60.2,30.05,SW,225,0.0,0.8,77,0.00,,,0.00,WUHU216HW,2013-06-23 00:36:00,
2013-06-23 02:41:00,67.2,59.8,30.05,WSW,248,0.0,0.0,77,0.00,,,0.00,WUHU216HW,2013-06-23 00:41:00,
2013-06-23 02:46:00,67.6,60.2,30.05,WSW,248,0.0,0.0,77,0.00,,,0.00,WUHU216HW,2013-06-23 00:46:00,
2013-06-23 02:51:00,67.8,60.0,30.05,SSW,203,0.0,0.0,76,0.00,,,0.00,WUHU216HW,2013-06-23 00:51:00,
2013-06-23 02:56:00,68.1,60.1,30.05,WSW,248,0.0,0.0,76,0.00,,,0.00,WUHU216HW,2013-06-23 00:56:00,
2013-06-23 03:01:00,68.1,60.3,30.05,NNW,338,0.0,0.0,76,0.00,,,0.00,WUHU216HW,2013-06-23 01:01:00,
2013-06-23 03:07:00,68.1,60.3,30.05,North,0,0.0,0.0,76,0.00,,,0.00,WUHU216HW,2013-06-23 01:07:00,
2013-06-23 03:12:00,66.9,59.4,30.05,North,0,0.0,1.3,77,0.00,,,0.00,WUHU216HW,2013-06-23 01:12:00,
2013-06-23 03:17:00,66.7,59.3,30.06,East,90,0.0,1.3,77,0.00,,,0.00,WUHU216HW,2013-06-23 01:17:00,
2013-06-23 03:22:00,66.7,59.3,30.06,NE,45,0.0,0.0,77,0.00,,,0.00,WUHU216HW,2013-06-23 01:22:00,
2013-06-23 03:28:00,66.9,59.4,30.05,North,0,0.0,0.0,77,0.00,,,0.00,WUHU216HW,2013-06-23 01:28:00,
2013-06-23 03:33:00,67.1,59.6,30.06,NNE,23,0.0,0.0,77,0.00,,,0.00,WUHU216HW,2013-06-23 01:33:00,
2013-06-23 03:38:00,67.2,59.8,30.05,ESE,113,0.0,0.0,77,0.00,,,0.00,WUHU216HW,2013-06-23 01:38:00,
2013-06-23 03:43:00,67.4,60.0,30.05,ENE,68,2.0,2.0,77,0.00,,,0.00,WUHU216HW,2013-06-23 01:43:00,
2013-06-23 03:48:00,67.6,60.2,30.05,North,0,0.0,2.0,77,0.00,,,0.00,WUHU216HW,2013-06-23 01:48:00,
2013-06-23 03:53:00,67.6,60.2,30.04,NNW,338,1.1,1.1,77,0.00,,,0.00,WUHU216HW,2013-06-23 01:53:00,
2013-06-23 03:58:00,67.1,59.6,30.05,NNW,338,0.0,1.1,77,0.00,,,0.00,WUHU216HW,2013-06-23 01:58:00,
2013-06-23 04:03:00,66.9,59.4,30.05,North,0,0.0,0.0,77,0.00,,,0.00,WUHU216HW,2013-06-23 02:03:00,
2013-06-23 04:08:00,66.7,59.3,30.05,NW,315,0.0,0.8,77,0.00,,,0.00,WUHU216HW,2013-06-23 02:08:00,
2013-06-23 04:13:00,66.5,59.1,30.05,NE,45,0.0,0.8,77,0.00,,,0.00,WUHU216HW,2013-06-23 02:13:00,
2013-06-23 04:18:00,66.7,59.3,30.05,ESE,113,0.0,0.0,77,0.00,,,0.00,WUHU216HW,2013-06-23 02:18:00,
2013-06-23 04:23:00,66.7,59.3,30.05,NNW,338,0.0,0.0,77,0.00,,,0.00,WUHU216HW,2013-06-23 02:23:00,
2013-06-23 04:28:00,66.3,58.9,30.05,NNW,338,0.0,0.0,77,0.00,,,0.00,WUHU216HW,2013-06-23 02:28:00,
2013-06-23 04:33:00,66.3,58.9,30.06,West,270,0.0,0.0,77,0.00,,,0.00,WUHU216HW,2013-06-23 02:33:00,
2013-06-23 04:38:00,66.3,58.9,30.05,ESE,113,0.0,0.0,77,0.00,,,0.00,WUHU216HW,2013-06-23 02:38:00,
2013-06-23 04:43:00,66.7,59.1,30.05,ENE,68,1.3,1.5,77,0.00,,,0.00,WUHU216HW,2013-06-23 02:43:00,
2013-06-23 04:48:00,66.5,59.1,30.05,North,0,1.3,2.0,77,0.00,,,0.00,WUHU216HW,2013-06-23 02:48:00,
2013-06-23 04:53:00,66.0,58.5,30.04,North,0,0.0,2.0,77,0.00,,,0.00,WUHU216HW,2013-06-23 02:53:00,
2013-06-23 04:58:00,65.8,58.4,30.04,North,0,0.0,0.6,77,0.00,,,0.00,WUHU216HW,2013-06-23 02:58:00,
2013-06-23 05:03:00,66.0,58.5,30.05,NW,315,1.3,1.3,77,0.00,,,0.00,WUHU216HW,2013-06-23 03:03:00,
2013-06-23 05:08:00,65.8,58.4,30.05,NNW,338,0.0,1.3,77,0.00,,,0.00,WUHU216HW,2013-06-23 03:08:00,
2013-06-23 05:13:00,65.8,58.4,30.05,NW,315,0.0,1.1,77,0.00,,,0.00,WUHU216HW,2013-06-23 03:13:00,
2013-06-23 05:18:00,65.8,58.0,30.06,NNW,338,0.0,1.1,76,0.00,,,0.00,WUHU216HW,2013-06-23 03:18:00,
2013-06-23 05:23:00,65.8,57.6,30.05,NNW,338,0.0,0.0,75,0.00,,,0.00,WUHU216HW,2013-06-23 03:23:00,
2013-06-23 05:28:00,65.8,57.6,30.05,ENE,68,0.0,0.0,75,0.00,,,0.00,WUHU216HW,2013-06-23 03:28:00,
2013-06-23 05:33:00,65.8,58.0,30.05,NW,315,0.0,0.0,76,0.00,,,0.00,WUHU216HW,2013-06-23 03:33:00,
2013-06-23 05:38:00,65.8,57.6,30.05,NNW,338,0.0,1.3,75,0.00,,,0.00,WUHU216HW,2013-06-23 03:38:00,
2013-06-23 05:43:00,65.4,57.3,30.05,SW,225,0.0,1.3,75,0.00,,,0.00,WUHU216HW,2013-06-23 03:43:00,
2013-06-23 05:48:00,65.1,56.9,30.05,WSW,248,0.0,0.0,75,0.00,,,0.00,WUHU216HW,2013-06-23 03:48:00,
2013-06-23 05:53:00,65.1,57.3,30.05,WSW,248,0.0,0.0,76,0.00,,,0.00,WUHU216HW,2013-06-23 03:53:00,
2013-06-23 05:58:00,65.3,57.5,30.05,SSW,203,0.0,0.0,76,0.00,,,0.00,WUHU216HW,2013-06-23 03:58:00,
2013-06-23 06:01:00,65.4,57.6,30.04,ENE,68,0.0,0.0,76,0.00,,,0.00,WUHU216HW,2013-06-23 04:01:00,
2013-06-23 06:06:00,66.0,58.2,30.04,East,90,0.0,0.0,76,0.00,,,0.00,WUHU216HW,2013-06-23 04:06:00,
2013-06-23 06:11:00,66.7,58.9,30.04,NW,315,0.0,0.0,76,0.00,,,0.00,WUHU216HW,2013-06-23 04:11:00,
2013-06-23 06:16:00,66.7,58.9,30.04,NW,315,1.1,1.3,76,0.00,,,0.00,WUHU216HW,2013-06-23 04:16:00,
2013-06-23 06:21:00,66.5,58.5,30.05,WSW,248,1.5,1.7,76,0.00,,,0.00,WUHU216HW,2013-06-23 04:21:00,
2013-06-23 06:26:00,66.3,58.5,30.05,South,180,0.0,1.7,76,0.00,,,0.00,WUHU216HW,2013-06-23 04:26:00,
2013-06-23 06:31:00,67.1,58.9,30.04,South,180,2.9,2.9,75,0.00,,,0.00,WUHU216HW,2013-06-23 04:31:00,
2013-06-23 06:36:00,67.8,59.2,30.05,SW,225,2.4,3.3,74,0.00,,,0.00,WUHU216HW,2013-06-23 04:36:00,
2013-06-23 06:41:00,68.1,59.2,30.05,SW,225,2.0,3.3,73,0.00,,,0.00,WUHU216HW,2013-06-23 04:41:00,
2013-06-23 06:46:00,68.5,59.5,30.05,NNW,338,0.0,3.1,73,0.00,,,0.00,WUHU216HW,2013-06-23 04:46:00,
2013-06-23 06:51:00,68.9,59.8,30.04,ENE,68,2.2,2.2,73,0.00,,,0.00,WUHU216HW,2013-06-23 04:51:00,
2013-06-23 06:56:00,68.9,60.2,30.05,North,0,1.3,2.2,74,0.00,,,0.00,WUHU216HW,2013-06-23 04:56:00,
2013-06-23 07:01:00,68.9,60.2,30.04,NNW,338,0.0,2.0,74,0.00,,,0.00,WUHU216HW,2013-06-23 05:01:00,
2013-06-23 07:06:00,68.9,60.2,30.04,North,0,0.8,2.0,74,0.00,,,0.00,WUHU216HW,2013-06-23 05:06:00,
2013-06-23 07:11:00,69.0,60.4,30.05,SW,225,1.7,1.7,74,0.00,,,0.00,WUHU216HW,2013-06-23 05:11:00,
2013-06-23 07:16:00,69.0,60.4,30.05,SW,225,1.3,2.2,74,0.00,,,0.00,WUHU216HW,2013-06-23 05:16:00,
2013-06-23 07:21:00,69.4,60.7,30.04,NNW,346,1.6,2.2,74,0.00,,,0.00,WUHU216HW,2013-06-23 05:21:00,
2013-06-23 07:26:00,69.6,60.5,30.05,NE,45,0.0,2.0,73,0.00,,,0.00,WUHU216HW,2013-06-23 05:26:00,
2013-06-23 07:31:00,69.6,60.6,30.05,NW,315,2.0,2.0,73,0.00,,,0.00,WUHU216HW,2013-06-23 05:31:00,
2013-06-23 07:36:00,69.4,60.3,30.06,North,0,0.0,2.0,73,0.00,,,0.00,WUHU216HW,2013-06-23 05:36:00,
2013-06-23 07:41:00,69.2,60.1,30.05,NE,45,0.8,1.5,73,0.00,,,0.00,WUHU216HW,2013-06-23 05:41:00,
2013-06-23 07:46:00,69.0,59.6,30.05,ESE,113,0.0,2.4,72,0.00,,,0.00,WUHU216HW,2013-06-23 05:46:00,
2013-06-23 07:51:00,69.4,60.3,30.05,ENE,68,0.0,2.4,73,0.00,,,0.00,WUHU216HW,2013-06-23 05:51:00,
2013-06-23 07:56:00,69.8,61.0,30.04,ENE,68,0.0,1.7,74,0.00,,,0.00,WUHU216HW,2013-06-23 05:56:00,
2013-06-23 08:01:00,70.3,61.5,30.05,NW,315,0.0,1.7,74,0.00,,,0.00,WUHU216HW,2013-06-23 06:01:00,
2013-06-23 08:06:00,70.5,61.3,30.06,WSW,248,1.3,1.5,73,0.00,,,0.00,WUHU216HW,2013-06-23 06:06:00,
2013-06-23 08:11:00,70.8,61.3,30.07,West,270,0.0,1.5,72,0.00,,,0.00,WUHU216HW,2013-06-23 06:11:00,
2013-06-23 08:16:00,70.7,61.0,30.07,WSW,248,0.0,2.4,72,0.00,,,0.00,WUHU216HW,2013-06-23 06:16:00,
2013-06-23 08:21:00,70.7,61.9,30.07,WNW,293,0.0,2.4,74,0.00,,,0.00,WUHU216HW,2013-06-23 06:21:00,
2013-06-23 08:26:00,70.7,62.3,30.06,East,90,2.6,3.8,75,0.00,,,0.00,WUHU216HW,2013-06-23 06:26:00,
2013-06-23 08:31:00,70.3,61.9,30.04,East,94,4.9,6.9,75,0.00,,,0.00,WUHU216HW,2013-06-23 06:31:00,
2013-06-23 08:36:00,70.3,61.2,30.06,West,270,3.8,6.9,73,0.00,,,0.00,WUHU216HW,2013-06-23 06:36:00,
2013-06-23 08:41:00,69.4,61.4,30.06,WNW,293,2.2,8.2,76,0.00,,,0.00,WUHU216HW,2013-06-23 06:41:00,
2013-06-23 08:46:00,68.7,60.8,30.06,South,180,0.0,8.2,76,0.00,,,0.00,WUHU216HW,2013-06-23 06:46:00,
2013-06-23 08:51:00,68.5,61.0,30.06,WSW,248,1.7,1.7,77,0.00,,,0.00,WUHU216HW,2013-06-23 06:51:00,
2013-06-23 08:56:00,68.7,60.8,30.06,SW,225,3.1,3.1,76,0.00,,,0.00,WUHU216HW,2013-06-23 06:56:00,
2013-06-23 09:01:00,68.7,60.8,30.06,SW,225,1.5,4.0,76,0.00,,,0.00,WUHU216HW,2013-06-23 07:01:00,
2013-06-23 09:06:00,68.9,61.1,30.07,NNW,345,2.9,4.0,76,0.00,,,0.00,WUHU216HW,2013-06-23 07:06:00,
2013-06-23 09:11:00,68.3,60.5,30.07,NNW,343,2.5,3.8,76,0.00,,,0.00,WUHU216HW,2013-06-23 07:11:00,
2013-06-23 09:16:00,68.7,60.8,30.07,WNW,293,0.0,3.8,76,0.00,,,0.00,WUHU216HW,2013-06-23 07:16:00,
2013-06-23 09:21:00,69.4,61.8,30.07,ESE,113,2.2,2.2,77,0.00,,,0.00,WUHU216HW,2013-06-23 07:21:00,
2013-06-23 09:26:00,70.8,62.8,30.07,East,90,0.0,2.2,76,0.00,,,0.00,WUHU216HW,2013-06-23 07:26:00,
2013-06-23 09:31:00,72.3,64.3,30.06,ENE,68,3.3,3.5,76,0.00,,,0.00,WUHU216HW,2013-06-23 07:31:00,
2013-06-23 09:36:00,72.8,64.4,30.06,ENE,68,4.6,4.6,75,0.00,,,0.00,WUHU216HW,2013-06-23 07:36:00,
2013-06-23 09:41:00,73.2,64.4,30.06,East,90,4.0,4.6,74,0.00,,,0.00,WUHU216HW,2013-06-23 07:41:00,
2013-06-23 09:46:00,72.8,62.9,30.06,ENE,73,2.5,4.0,71,0.00,,,0.00,WUHU216HW,2013-06-23 07:46:00,
2013-06-23 09:51:00,72.8,63.3,30.06,ESE,113,0.8,3.8,72,0.00,,,0.00,WUHU216HW,2013-06-23 07:51:00,
2013-06-23 09:56:00,73.0,63.5,30.06,WSW,248,1.5,2.9,72,0.00,,,0.00,WUHU216HW,2013-06-23 07:56:00,
2013-06-23 10:01:00,73.2,63.3,30.06,WSW,248,2.0,2.0,71,0.00,,,0.00,WUHU216HW,2013-06-23 08:01:00,
2013-06-23 10:06:00,73.9,63.6,30.05,SW,231,1.8,2.6,70,0.00,,,0.00,WUHU216HW,2013-06-23 08:06:00,
2013-06-23 10:11:00,73.9,65.1,30.06,SSW,203,3.2,4.0,74,0.00,,,0.00,WUHU216HW,2013-06-23 08:11:00,
2013-06-23 10:16:00,73.7,65.3,30.06,SSW,203,6.2,6.2,75,0.00,,,0.00,WUHU216HW,2013-06-23 08:16:00,
2013-06-23 10:21:00,73.9,65.5,30.06,WSW,256,8.1,10.0,75,0.00,,,0.00,WUHU216HW,2013-06-23 08:21:00,
2013-06-23 10:26:00,74.1,65.7,30.05,WSW,248,9.3,10.0,75,0.00,,,0.00,WUHU216HW,2013-06-23 08:26:00,
2013-06-23 10:31:00,75.0,66.5,30.06,SW,233,7.4,10.0,74,0.00,,,0.00,WUHU216HW,2013-06-23 08:31:00,
2013-06-23 10:36:00,75.0,66.1,30.06,SW,225,4.4,10.0,74,0.00,,,0.00,WUHU216HW,2013-06-23 08:36:00,
2013-06-23 10:41:00,75.7,66.8,30.06,SW,225,7.6,10.0,74,0.00,,,0.00,WUHU216HW,2013-06-23 08:41:00,
2013-06-23 10:46:00,75.9,66.6,30.06,West,270,4.0,8.7,73,0.00,,,0.00,WUHU216HW,2013-06-23 08:46:00,
2013-06-23 10:51:00,76.2,67.1,30.07,SSW,203,4.2,8.7,73,0.00,,,0.00,WUHU216HW,2013-06-23 08:51:00,
2013-06-23 10:56:00,76.6,65.7,30.06,South,188,3.4,8.2,69,0.00,,,0.00,WUHU216HW,2013-06-23 08:56:00,
2013-06-23 11:01:00,76.8,66.7,30.06,SSE,158,4.2,8.2,71,0.00,,,0.00,WUHU216HW,2013-06-23 09:01:00,
2013-06-23 11:07:00,77.1,65.3,30.06,South,182,4.3,6.0,67,0.00,,,0.00,WUHU216HW,2013-06-23 09:07:00,
2013-06-23 11:11:00,77.7,64.0,30.06,SW,225,4.9,6.0,63,0.00,,,0.00,WUHU216HW,2013-06-23 09:11:00,
2013-06-23 11:16:00,78.0,63.5,30.06,SW,235,4.0,4.9,61,0.00,,,0.00,WUHU216HW,2013-06-23 09:16:00,
2013-06-23 11:21:00,78.0,62.6,30.05,West,270,4.4,4.4,59,0.00,,,0.00,WUHU216HW,2013-06-23 09:21:00,
2013-06-23 11:27:00,78.6,63.1,30.06,SW,217,5.3,6.7,59,0.00,,,0.00,WUHU216HW,2013-06-23 09:27:00,
2013-06-23 11:32:00,78.9,63.5,30.05,WSW,248,5.2,6.7,59,0.00,,,0.00,WUHU216HW,2013-06-23 09:32:00,
2013-06-23 11:37:00,78.9,63.5,30.05,WNW,282,2.3,7.6,59,0.00,,,0.00,WUHU216HW,2013-06-23 09:37:00,
2013-06-23 11:42:00,78.9,62.9,30.06,South,180,5.5,7.6,58,0.00,,,0.00,WUHU216HW,2013-06-23 09:42:00,
2013-06-23 11:47:00,79.3,62.7,30.05,South,177,5.3,6.4,57,0.00,,,0.00,WUHU216HW,2013-06-23 09:47:00,
2013-06-23 11:52:00,80.0,61.8,30.05,SSE,168,5.6,6.4,54,0.00,,,0.00,WUHU216HW,2013-06-23 09:52:00,
2013-06-23 11:57:00,80.9,60.4,30.05,SSW,203,7.6,7.6,50,0.00,,,0.00,WUHU216HW,2013-06-23 09:57:00,
2013-06-23 12:02:00,81.1,61.6,30.05,SE,129,1.8,7.6,51,0.00,,,0.00,WUHU216HW,2013-06-23 10:02:00,
2013-06-23 12:07:00,80.9,61.1,30.05,WNW,293,2.4,5.5,51,0.00,,,0.00,WUHU216HW,2013-06-23 10:07:00,
2013-06-23 12:12:00,80.9,61.1,30.05,South,180,2.8,5.8,51,0.00,,,0.00,WUHU216HW,2013-06-23 10:12:00,
2013-06-23 12:17:00,81.3,60.7,30.05,SE,135,0.0,5.8,51,0.00,,,0.00,WUHU216HW,2013-06-23 10:17:00,
2013-06-23 12:23:00,82.2,61.7,30.05,SSW,199,2.5,5.8,50,0.00,,,0.00,WUHU216HW,2013-06-23 10:23:00,
2013-06-23 12:28:00,82.5,62.5,30.04,South,180,9.1,9.1,51,0.00,,,0.00,WUHU216HW,2013-06-23 10:28:00,
2013-06-23 12:33:00,82.7,62.7,30.04,SSE,154,1.6,9.1,51,0.00,,,0.00,WUHU216HW,2013-06-23 10:33:00,
2013-06-23 12:38:00,83.1,63.6,30.04,South,186,2.8,9.1,52,0.00,,,0.00,WUHU216HW,2013-06-23 10:38:00,
2013-06-23 12:43:00,83.1,63.1,30.04,SSW,203,6.9,7.6,51,0.00,,,0.00,WUHU216HW,2013-06-23 10:43:00,
2013-06-23 12:48:00,82.2,62.7,30.04,SSW,203,7.0,7.6,52,0.00,,,0.00,WUHU216HW,2013-06-23 10:48:00,
2013-06-23 12:53:00,82.2,61.7,30.04,SW,225,10.9,10.9,50,0.00,,,0.00,WUHU216HW,2013-06-23 10:53:00,
2013-06-23 12:58:00,82.9,61.7,30.04,South,191,7.8,11.8,49,0.00,,,0.00,WUHU216HW,2013-06-23 10:58:00,
2013-06-23 13:03:00,82.9,59.9,30.04,South,180,6.6,11.8,46,0.00,,,0.00,WUHU216HW,2013-06-23 11:03:00,
2013-06-23 13:08:00,83.1,61.3,30.04,South,180,5.3,9.1,48,0.00,,,0.00,WUHU216HW,2013-06-23 11:08:00,
2013-06-23 13:13:00,83.1,61.3,30.04,SSW,203,15.2,15.2,48,0.00,,,0.00,WUHU216HW,2013-06-23 11:13:00,
2013-06-23 13:18:00,82.9,59.3,30.04,SSE,158,10.0,15.2,45,0.00,,,0.00,WUHU216HW,2013-06-23 11:18:00,
2013-06-23 13:24:00,83.4,62.3,30.04,SSW,193,7.4,11.1,49,0.00,,,0.00,WUHU216HW,2013-06-23 11:24:00,
2013-06-23 13:29:00,83.4,62.3,30.03,South,180,10.5,11.1,49,0.00,,,0.00,WUHU216HW,2013-06-23 11:29:00,
2013-06-23 13:35:00,83.4,62.3,30.04,South,173,6.4,10.5,49,0.00,,,0.00,WUHU216HW,2013-06-23 11:35:00,
2013-06-23 13:40:00,83.3,62.1,30.04,SE,135,6.2,10.7,49,0.00,,,0.00,WUHU216HW,2013-06-23 11:40:00,
2013-06-23 13:46:00,82.9,62.4,30.03,SSW,209,3.5,11.4,50,0.00,,,0.00,WUHU216HW,2013-06-23 11:46:00,
2013-06-23 13:51:00,83.3,62.1,30.03,South,180,7.3,11.4,49,0.00,,,0.00,WUHU216HW,2013-06-23 11:51:00,
2013-06-23 13:57:00,84.0,62.8,30.03,SSE,158,14.3,14.3,49,0.00,,,0.00,WUHU216HW,2013-06-23 11:57:00,
2013-06-23 14:02:00,83.8,62.0,30.03,SE,135,8.0,14.3,48,0.00,,,0.00,WUHU216HW,2013-06-23 12:02:00,
2013-06-23 14:07:00,84.7,62.2,30.03,WSW,248,10.3,12.3,47,0.00,,,0.00,WUHU216HW,2013-06-23 12:07:00,
2013-06-23 14:12:00,84.0,61.6,30.02,SE,135,8.2,11.8,47,0.00,,,0.00,WUHU216HW,2013-06-23 12:12:00,
2013-06-23 14:17:00,83.8,60.8,30.02,SW,219,7.0,10.2,46,0.00,,,0.00,WUHU216HW,2013-06-23 12:17:00,
2013-06-23 14:22:00,83.8,62.0,30.02,WSW,248,9.0,13.6,48,0.00,,,0.00,WUHU216HW,2013-06-23 12:22:00,
2013-06-23 14:27:00,83.3,60.9,30.03,SE,135,8.2,15.4,47,0.00,,,0.00,WUHU216HW,2013-06-23 12:27:00,
2013-06-23 14:32:00,84.0,60.9,30.03,SW,225,3.3,17.4,46,0.00,,,0.00,WUHU216HW,2013-06-23 12:32:00,
2013-06-23 14:37:00,84.7,60.3,30.03,SW,225,7.3,17.4,44,0.00,,,0.00,WUHU216HW,2013-06-23 12:37:00,
2013-06-23 14:42:00,84.2,60.3,30.04,SSW,207,6.2,11.1,45,0.00,,,0.00,WUHU216HW,2013-06-23 12:42:00,
2013-06-23 14:47:00,84.3,60.6,30.03,WSW,248,6.7,11.1,45,0.00,,,0.00,WUHU216HW,2013-06-23 12:47:00,
2013-06-23 14:52:00,84.7,61.0,30.03,SW,215,7.6,9.8,45,0.00,,,0.00,WUHU216HW,2013-06-23 12:52:00,
2013-06-23 14:57:00,84.7,61.0,30.03,South,180,9.6,9.8,45,0.00,,,0.00,WUHU216HW,2013-06-23 12:57:00,
2013-06-23 15:02:00,84.9,59.9,30.04,SSE,152,4.1,11.8,43,0.00,,,0.00,WUHU216HW,2013-06-23 13:02:00,
2013-06-23 15:07:00,84.0,60.3,30.03,SSE,166,9.1,14.3,45,0.00,,,0.00,WUHU216HW,2013-06-23 13:07:00,
2013-06-23 15:12:00,83.8,60.1,30.03,SSW,198,5.4,14.5,45,0.00,,,0.00,WUHU216HW,2013-06-23 13:12:00,
2013-06-23 15:17:00,83.4,58.9,30.04,SW,225,12.3,15.8,43,0.00,,,0.00,WUHU216HW,2013-06-23 13:17:00,
2013-06-23 15:22:00,83.3,57.1,30.03,SSW,203,5.3,15.8,41,0.00,,,0.00,WUHU216HW,2013-06-23 13:22:00,
2013-06-23 15:27:00,84.0,59.5,30.03,South,186,6.0,11.4,44,0.00,,,0.00,WUHU216HW,2013-06-23 13:27:00,
2013-06-23 15:32:00,84.0,57.8,30.04,SW,225,3.0,10.5,41,0.00,,,0.00,WUHU216HW,2013-06-23 13:32:00,
2013-06-23 15:37:00,84.0,57.2,30.04,SW,230,8.3,12.9,40,0.00,,,0.00,WUHU216HW,2013-06-23 13:37:00,
2013-06-23 15:42:00,83.8,57.0,30.04,SSW,213,5.3,12.9,40,0.00,,,0.00,WUHU216HW,2013-06-23 13:42:00,
2013-06-23 15:47:00,83.8,58.9,30.04,SW,225,6.2,10.9,43,0.00,,,0.00,WUHU216HW,2013-06-23 13:47:00,
2013-06-23 15:52:00,84.5,56.9,30.03,SW,225,9.1,10.9,39,0.00,,,0.00,WUHU216HW,2013-06-23 13:52:00,
2013-06-23 15:57:00,84.2,58.1,30.03,NW,315,2.2,9.1,41,0.00,,,0.00,WUHU216HW,2013-06-23 13:57:00,
2013-06-23 16:02:00,84.0,57.2,30.04,South,187,6.4,10.7,40,0.00,,,0.00,WUHU216HW,2013-06-23 14:02:00,
2013-06-23 16:07:00,83.4,58.5,30.04,SW,225,6.1,11.8,43,0.00,,,0.00,WUHU216HW,2013-06-23 14:07:00,
2013-06-23 16:12:00,83.1,57.6,30.03,South,179,4.2,11.8,42,0.00,,,0.00,WUHU216HW,2013-06-23 14:12:00,
2013-06-23 16:17:00,83.4,57.3,30.03,SW,225,4.6,8.9,41,0.00,,,0.00,WUHU216HW,2013-06-23 14:17:00,
2013-06-23 16:22:00,83.8,57.3,30.03,WSW,248,7.0,8.9,41,0.00,,,0.00,WUHU216HW,2013-06-23 14:22:00,
2013-06-23 16:28:00,83.3,59.2,30.03,South,180,6.7,9.8,44,0.00,,,0.00,WUHU216HW,2013-06-23 14:28:00,
2013-06-23 16:33:00,83.1,58.8,30.03,WSW,245,3.3,10.9,44,0.00,,,0.00,WUHU216HW,2013-06-23 14:33:00,
2013-06-23 16:38:00,82.5,58.3,30.03,South,180,18.7,18.7,44,0.00,,,0.00,WUHU216HW,2013-06-23 14:38:00,
2013-06-23 16:43:00,82.4,58.2,30.03,SSE,158,10.0,18.7,44,0.00,,,0.00,WUHU216HW,2013-06-23 14:43:00,
2013-06-23 16:48:00,82.5,59.5,30.03,SSE,158,12.0,12.3,44,0.00,,,0.00,WUHU216HW,2013-06-23 14:48:00,
2013-06-23 16:53:00,82.5,60.2,30.03,SSE,158,17.6,17.6,47,0.00,,,0.00,WUHU216HW,2013-06-23 14:53:00,
2013-06-23 16:58:00,81.5,60.4,30.02,SSW,203,8.2,17.6,49,0.00,,,0.00,WUHU216HW,2013-06-23 14:58:00,
2013-06-23 17:03:00,81.8,61.5,30.03,South,173,9.4,17.6,50,0.00,,,0.00,WUHU216HW,2013-06-23 15:03:00,
2013-06-23 17:08:00,81.8,61.9,30.03,SSW,213,5.2,15.6,51,0.00,,,0.00,WUHU216HW,2013-06-23 15:08:00,
2013-06-23 17:13:00,81.3,61.4,30.02,SSW,203,14.5,15.6,51,0.00,,,0.00,WUHU216HW,2013-06-23 15:13:00,
2013-06-23 17:18:00,80.9,62.6,30.02,South,180,15.2,15.2,54,0.00,,,0.00,WUHU216HW,2013-06-23 15:18:00,
2013-06-23 17:23:00,80.4,62.7,30.02,SSE,158,13.1,15.2,55,0.00,,,0.00,WUHU216HW,2013-06-23 15:23:00,
2013-06-23 17:28:00,80.4,62.1,30.02,SSE,158,11.6,13.1,54,0.00,,,0.00,WUHU216HW,2013-06-23 15:28:00,
2013-06-23 17:33:00,80.2,63.0,30.02,SSW,207,5.8,11.6,56,0.00,,,0.00,WUHU216HW,2013-06-23 15:33:00,
2013-06-23 17:39:00,79.8,63.2,30.02,South,180,8.9,9.8,57,0.00,,,0.00,WUHU216HW,2013-06-23 15:39:00,
2013-06-23 17:44:00,79.7,63.1,30.02,SSE,162,7.3,14.5,57,0.00,,,0.00,WUHU216HW,2013-06-23 15:44:00,
2013-06-23 17:49:00,79.5,61.8,30.02,SW,234,7.0,14.5,55,0.00,,,0.00,WUHU216HW,2013-06-23 15:49:00,
2013-06-23 17:54:00,79.3,62.2,30.02,South,180,10.9,10.9,56,0.00,,,0.00,WUHU216HW,2013-06-23 15:54:00,
2013-06-23 17:59:00,78.9,62.9,30.02,South,182,8.1,10.9,58,0.00,,,0.00,WUHU216HW,2013-06-23 15:59:00,
2013-06-23 18:04:00,79.3,63.3,30.02,South,180,8.7,8.9,58,0.00,,,0.00,WUHU216HW,2013-06-23 16:04:00,
2013-06-23 18:09:00,79.3,62.7,30.02,South,180,14.5,14.5,57,0.00,,,0.00,WUHU216HW,2013-06-23 16:09:00,
2013-06-23 18:14:00,78.9,62.4,30.02,South,180,9.7,14.5,57,0.00,,,0.00,WUHU216HW,2013-06-23 16:14:00,
2013-06-23 18:19:00,79.3,63.3,30.02,SSW,203,9.8,11.8,58,0.00,,,0.00,WUHU216HW,2013-06-23 16:19:00,
2013-06-23 18:24:00,78.9,62.9,30.02,WSW,246,5.8,10.5,58,0.00,,,0.00,WUHU216HW,2013-06-23 16:24:00,
2013-06-23 18:29:00,78.9,64.0,30.02,SSE,158,5.5,10.5,60,0.00,,,0.00,WUHU216HW,2013-06-23 16:29:00,
2013-06-23 18:34:00,79.5,63.4,30.02,SW,231,6.7,12.7,58,0.00,,,0.00,WUHU216HW,2013-06-23 16:34:00,
2013-06-23 18:39:00,78.9,64.0,30.02,South,180,14.3,14.7,59,0.00,,,0.00,WUHU216HW,2013-06-23 16:39:00,
2013-06-23 18:44:00,78.0,64.0,30.03,South,186,6.0,14.7,62,0.00,,,0.00,WUHU216HW,2013-06-23 16:44:00,
2013-06-23 18:49:00,77.0,63.8,30.02,WSW,248,5.3,10.2,64,0.00,,,0.00,WUHU216HW,2013-06-23 16:49:00,
2013-06-23 18:55:00,76.8,64.1,30.02,WSW,248,5.5,6.0,65,0.00,,,0.00,WUHU216HW,2013-06-23 16:55:00,
2013-06-23 18:57:00,76.6,63.9,30.02,SSW,203,4.6,6.9,65,0.00,,,0.00,WUHU216HW,2013-06-23 16:57:00,
2013-06-23 18:58:00,76.6,63.9,30.02,SSW,203,4.6,6.9,65,0.00,,,0.00,WUHU216HW,2013-06-23 16:58:00,
2013-06-23 19:03:00,76.1,63.8,30.02,WSW,239,7.1,9.8,66,0.00,,,0.00,WUHU216HW,2013-06-23 17:03:00,
2013-06-23 19:08:00,76.2,64.0,30.02,SSW,203,4.7,9.8,66,0.00,,,0.00,WUHU216HW,2013-06-23 17:08:00,
2013-06-23 19:13:00,77.1,64.4,30.02,SW,217,4.2,7.3,65,0.00,,,0.00,WUHU216HW,2013-06-23 17:13:00,
2013-06-23 19:18:00,77.1,64.0,30.02,SSW,203,4.6,6.9,64,0.00,,,0.00,WUHU216HW,2013-06-23 17:18:00,
2013-06-23 19:23:00,77.5,64.3,30.02,SSE,158,7.1,7.1,64,0.00,,,0.00,WUHU216HW,2013-06-23 17:23:00,
2013-06-23 19:28:00,77.5,64.3,30.02,West,270,4.4,7.1,64,0.00,,,0.00,WUHU216HW,2013-06-23 17:28:00,
2013-06-23 19:33:00,77.3,64.6,30.02,SSW,203,6.0,6.7,65,0.00,,,0.00,WUHU216HW,2013-06-23 17:33:00,
2013-06-23 19:38:00,76.8,64.1,30.02,SSW,203,5.1,7.8,65,0.00,,,0.00,WUHU216HW,2013-06-23 17:38:00,
2013-06-23 19:43:00,76.8,64.3,30.02,SW,225,8.2,8.2,65,0.00,,,0.00,WUHU216HW,2013-06-23 17:43:00,
2013-06-23 19:48:00,76.6,64.4,30.02,SSW,212,4.1,8.2,66,0.00,,,0.00,WUHU216HW,2013-06-23 17:48:00,
2013-06-23 19:53:00,76.8,64.5,30.02,WSW,248,2.9,6.4,66,0.00,,,0.00,WUHU216HW,2013-06-23 17:53:00,
2013-06-23 19:58:00,76.6,64.4,30.02,SW,225,2.4,5.5,66,0.00,,,0.00,WUHU216HW,2013-06-23 17:58:00,
2013-06-23 20:03:00,76.4,64.4,30.02,SW,225,3.0,5.5,66,0.00,,,0.00,WUHU216HW,2013-06-23 18:03:00,
2013-06-23 20:08:00,76.2,64.5,30.02,SSW,213,1.5,3.5,67,0.00,,,0.00,WUHU216HW,2013-06-23 18:08:00,
2013-06-23 20:13:00,76.1,64.3,30.02,South,180,2.0,2.9,67,0.00,,,0.00,WUHU216HW,2013-06-23 18:13:00,
2013-06-23 20:18:00,75.9,64.5,30.02,South,180,2.4,6.0,68,0.00,,,0.00,WUHU216HW,2013-06-23 18:18:00,
2013-06-23 20:23:00,75.7,64.4,30.02,WSW,248,2.4,6.0,68,0.00,,,0.00,WUHU216HW,2013-06-23 18:23:00,
2013-06-23 20:28:00,75.3,64.0,30.02,SW,225,0.0,5.3,68,0.00,,,0.00,WUHU216HW,2013-06-23 18:28:00,
2013-06-23 20:33:00,75.3,64.4,30.02,WNW,293,0.0,1.1,69,0.00,,,0.00,WUHU216HW,2013-06-23 18:33:00,
2013-06-23 20:38:00,75.0,64.5,30.02,West,270,3.1,3.1,70,0.00,,,0.00,WUHU216HW,2013-06-23 18:38:00,
2013-06-23 20:43:00,74.8,64.8,30.02,WNW,293,1.1,3.1,71,0.00,,,0.00,WUHU216HW,2013-06-23 18:43:00,
2013-06-23 20:48:00,74.4,64.1,30.02,West,270,3.9,6.2,70,0.00,,,0.00,WUHU216HW,2013-06-23 18:48:00,
2013-06-23 20:53:00,74.3,63.9,30.02,SE,135,0.0,6.2,70,0.00,,,0.00,WUHU216HW,2013-06-23 18:53:00,
2013-06-23 20:58:00,74.4,64.4,30.02,NE,36,1.0,1.3,71,0.00,,,0.00,WUHU216HW,2013-06-23 18:58:00,
2013-06-23 21:03:00,74.3,64.3,30.02,East,90,0.8,1.7,71,0.00,,,0.00,WUHU216HW,2013-06-23 19:03:00,
2013-06-23 21:09:00,73.7,64.0,30.02,NE,45,2.0,5.3,71,0.00,,,0.00,WUHU216HW,2013-06-23 19:09:00,
2013-06-23 21:14:00,73.5,63.6,30.02,NE,45,3.1,5.3,71,0.00,,,0.00,WUHU216HW,2013-06-23 19:14:00,
2013-06-23 21:19:00,73.2,63.7,30.02,NE,45,5.8,5.8,72,0.00,,,0.00,WUHU216HW,2013-06-23 19:19:00,
2013-06-23 21:24:00,73.0,63.5,30.02,ENE,68,3.5,5.8,72,0.00,,,0.00,WUHU216HW,2013-06-23 19:24:00,
2013-06-23 21:29:00,72.8,63.7,30.02,ENE,68,4.0,4.2,73,0.00,,,0.00,WUHU216HW,2013-06-23 19:29:00,
2013-06-23 21:34:00,72.6,63.5,30.03,ENE,68,2.4,4.0,73,0.00,,,0.00,WUHU216HW,2013-06-23 19:34:00,
2013-06-23 21:39:00,72.6,63.5,30.03,East,90,2.7,3.8,73,0.00,,,0.00,WUHU216HW,2013-06-23 19:39:00,
2013-06-23 21:44:00,72.3,63.5,30.03,ENE,68,2.9,4.9,74,0.00,,,0.00,WUHU216HW,2013-06-23 19:44:00,
2013-06-23 21:50:00,72.1,63.3,30.03,ENE,68,3.8,4.9,74,0.00,,,0.00,WUHU216HW,2013-06-23 19:50:00,
2013-06-23 21:55:00,72.1,63.3,30.03,ENE,74,4.3,6.0,74,0.00,,,0.00,WUHU216HW,2013-06-23 19:55:00,
2013-06-23 22:00:00,71.9,63.2,30.03,East,90,4.9,6.0,74,0.00,,,0.00,WUHU216HW,2013-06-23 20:00:00,
2013-06-23 22:05:00,71.9,63.2,30.04,NE,45,5.3,5.5,74,0.00,,,0.00,WUHU216HW,2013-06-23 20:05:00,
2013-06-23 22:10:00,71.9,63.2,30.04,ENE,68,2.4,6.7,74,0.00,,,0.00,WUHU216HW,2013-06-23 20:10:00,
2013-06-23 22:15:00,71.9,63.2,30.04,ENE,68,5.8,6.7,74,0.00,,,0.00,WUHU216HW,2013-06-23 20:15:00,
2013-06-23 22:20:00,71.9,63.2,30.04,NE,55,4.8,5.8,74,0.00,,,0.00,WUHU216HW,2013-06-23 20:20:00,
2013-06-23 22:25:00,71.7,63.4,30.04,East,90,2.9,5.1,75,0.00,,,0.00,WUHU216HW,2013-06-23 20:25:00,
2013-06-23 22:30:00,71.7,63.4,30.04,East,90,2.0,4.6,75,0.00,,,0.00,WUHU216HW,2013-06-23 20:30:00,
2013-06-23 22:35:00,71.7,63.4,30.03,NE,45,3.8,3.8,75,0.00,,,0.00,WUHU216HW,2013-06-23 20:35:00,
2013-06-23 22:40:00,71.6,63.2,30.04,ENE,68,3.1,3.8,75,0.00,,,0.00,WUHU216HW,2013-06-23 20:40:00,
2013-06-23 22:45:00,71.4,63.0,30.03,NNE,23,2.6,3.8,75,0.00,,,0.00,WUHU216HW,2013-06-23 20:45:00,
2013-06-23 22:50:00,71.4,63.0,30.03,ENE,68,2.6,2.9,75,0.00,,,0.00,WUHU216HW,2013-06-23 20:50:00,
2013-06-23 22:55:00,71.4,63.0,30.03,ENE,68,2.6,2.9,75,0.00,,,0.00,WUHU216HW,2013-06-23 20:55:00,
2013-06-23 23:00:00,71.2,63.0,30.03,ENE,63,2.1,2.6,75,0.00,,,0.00,WUHU216HW,2013-06-23 21:00:00,
2013-06-23 23:05:00,71.2,62.8,30.03,SSE,158,0.0,2.4,75,0.00,,,0.00,WUHU216HW,2013-06-23 21:05:00,
2013-06-23 23:10:00,71.2,62.8,30.02,ESE,113,0.0,2.2,75,0.00,,,0.00,WUHU216HW,2013-06-23 21:10:00,
2013-06-23 23:15:00,71.0,62.6,30.02,East,90,1.5,2.0,75,0.00,,,0.00,WUHU216HW,2013-06-23 21:15:00,
2013-06-23 23:20:00,70.8,62.5,30.02,ENE,68,2.0,2.0,75,0.00,,,0.00,WUHU216HW,2013-06-23 21:20:00,
2013-06-23 23:25:00,70.7,62.3,30.02,ESE,113,0.8,2.0,75,0.00,,,0.00,WUHU216HW,2013-06-23 21:25:00,
2013-06-23 23:30:00,70.5,62.1,30.02,ESE,113,0.8,1.7,75,0.00,,,0.00,WUHU216HW,2013-06-23 21:30:00,
2013-06-23 23:35:00,70.3,62.3,30.02,ESE,113,2.2,2.4,76,0.00,,,0.00,WUHU216HW,2013-06-23 21:35:00,
2013-06-23 23:40:00,69.9,61.9,30.02,East,90,1.1,2.4,76,0.00,,,0.00,WUHU216HW,2013-06-23 21:40:00,
2013-06-23 23:45:00,69.9,61.9,30.02,ESE,113,0.0,1.3,76,0.00,,,0.00,WUHU216HW,2013-06-23 21:45:00,
2013-06-23 23:50:00,69.9,61.9,30.02,SE,135,0.0,0.0,76,0.00,,,0.00,WUHU216HW,2013-06-23 21:50:00,
2013-06-23 23:55:00,69.9,61.9,30.02,ESE,113,0.0,0.0,76,0.00,,,0.00,WUHU216HW,2013-06-23 21:55:00,